Location: Calberlah
(52.4230°N, 10.6240°E)
Time: 17:38:27
(UTC+00:00)

USA 245 - Pass Details

Date: 19 May 2025
Orbit: 292 x 1030 km, 97.9° (Epoch: 02 June)

Event Time Altitude Azimuth Distance (km) Brightness Sun altitude
Exits shadow 20:37:31 - 180° (S) 2,164 5.9 -10.0°
Reaches altitude 10° 20:37:56 10° 181° (S) 2,003 5.7 -10.1°
Maximum altitude 20:42:18 59° 261° (W) 849 4.4 -10.5°
Drops below altitude 10° 20:47:45 10° 340° (NNW) 2,488 8.0 -10.9°
Sets 20:50:26 0° 345° (NNW) 3,534 9.0 -11.2°
